DW3649 Weather Reports


Display with metric or nautical units.
time (UTC)temp
F
wind
direction
speed
MPH
gust
MPH
rain 1hr
in
rain 24hr
in
rain mn
in
humidity
%
barometer
mb
20260503223054 51 59 1.0 0.0 0.00 0.00 0.00 59 1016.8
20260503221552 51 17 0.0 0.0 0.00 0.00 0.00 59 1017.0
20260503220106 51 10 0.0 0.0 0.00 0.00 0.00 58 1017.1
20260503214549 51 323 2.0 0.0 0.00 0.00 0.00 58 1017.1
20260503213049 52 315 2.0 0.0 0.00 0.00 0.00 57 1017.1
20260503211601 52 321 1.0 0.0 0.00 0.00 0.00 57 1017.1
20260503210046 52 300 1.0 0.0 0.00 0.00 0.00 58 1017.2
20260503204547 52 302 2.0 0.0 0.00 0.00 0.04 58 1017.3
20260503203042 52 318 3.0 0.0 0.00 0.00 0.04 58 1017.2
20260503201542 52 327 3.0 0.0 0.00 0.00 0.04 57 1017.3
20260503200041 52 284 4.0 0.0 0.00 0.00 0.04 56 1017.3
20260503194540 53 315 4.0 0.0 0.00 0.00 0.04 56 1017.3
20260503193047 53 291 4.0 0.0 0.00 0.00 0.04 55 1017.2
20260503191539 53 302 4.0 0.0 0.00 0.00 0.04 54 1017.2
20260503190043 53 315 4.0 0.0 0.00 0.00 0.04 54 1017.0
20260503184535 53 355 4.0 0.0 0.00 0.00 0.04 54 1016.9
20260503183039 53 326 3.0 0.0 0.00 0.00 0.04 55 1016.7
20260503181604 53 313 2.0 0.0 0.00 0.00 0.04 55 1016.5
20260503180031 53 336 2.0 0.0 0.00 0.00 0.04 54 1016.3
20260503174529 54 338 3.0 0.0 0.00 0.00 0.04 53 1016.1
20260503173042 54 296 2.0 0.0 0.00 0.00 0.04 52 1015.9
20260503171527 54 303 3.0 0.0 0.00 0.00 0.04 51 1015.9
20260503081558 52 48 2.0 0.0 0.00 0.00 0.04 61 1015.0
20260503071554 48 327 1.0 0.0 0.00 0.00 0.04 75 1014.9
20260503060109 45 31 0.0 0.0 0.00 0.00 0.04 82 1015.1
20260503054545 45 69 2.0 0.0 0.00 0.00 0.04 81 1015.3
20260503053045 45 69 2.0 0.0 0.00 0.00 0.03 81 1015.2
20260503051539 45 43 2.0 0.0 0.00 0.00 0.03 81 1015.0
20260503050036 46 64 2.0 0.0 0.00 0.00 0.02 79 1015.0
20260503044604 47 46 2.0 0.0 0.00 0.00 0.02 76 1014.8
20260503043030 48 44 2.0 0.0 0.00 0.00 0.02 73 1014.7
20260503041530 48 36 1.0 0.0 0.00 0.00 0.02 72 1014.4
20260503040030 48 5 2.0 0.0 0.00 0.00 0.02 72 1014.4
20260503034532 48 355 1.0 0.0 0.00 0.00 0.02 73 1014.5
20260503033029 48 324 1.0 0.0 0.00 0.00 0.02 73 1014.1
20260503031528 48 35 1.0 0.0 0.00 0.00 0.02 73 1014.1
20260503030031 48 333 1.0 0.0 0.00 0.00 0.02 72 1014.1
20260503024527 48 331 2.0 0.0 0.00 0.00 0.02 72 1014.0
20260503023027 48 299 2.0 0.0 0.00 0.00 0.02 69 1014.2
20260503021525 48 328 2.0 0.0 0.00 0.00 0.02 68 1014.3
20260503020034 48 346 2.0 0.0 0.00 0.00 0.02 68 1014.3
20260503014524 49 355 1.0 0.0 0.00 0.00 0.02 69 1014.1
20260503013024 48 9 2.0 0.0 0.00 0.00 0.02 70 1014.0
20260503011523 48 347 1.0 0.0 0.00 0.00 0.02 71 1014.2
20260503010022 48 24 1.0 0.0 0.00 0.00 0.02 70 1014.2
20260503004522 48 9 2.0 0.0 0.00 0.00 0.02 70 1014.0
20260503003029 48 355 3.0 0.0 0.00 0.00 0.02 71 1014.2
20260503001519 47 24 1.0 0.0 0.00 0.00 0.02 74 1014.3
20260503000027 47 350 2.0 0.0 0.00 0.00 0.02 74 1014.3
20260502234515 48 320 3.0 0.0 0.00 0.00 0.01 72 1014.7
20260502233009 48 53 3.0 0.0 0.00 0.00 0.01 72 1014.9
20260502231506 48 25 1.0 0.0 0.00 0.00 0.01 72 1015.0
20260502230004 48 11 0.0 0.0 0.00 0.00 0.01 70 1015.1
20260502224604 49 308 3.0 0.0 0.00 0.00 0.01 66 1015.1